EN

Hourly Weather Almoster

Today, 22 January, Friday

Time Temperature Precipitation Wind Pressure Humidity
00:00 +9°C° 0 mm 5 mps 733 mmHg 77%
01:00 +9°C° 0.2 mm 5 mps 732 mmHg 80%
02:00 +9°C° 0.2 mm 5 mps 732 mmHg 83%
03:00 +9°C° 0.2 mm 5 mps 731 mmHg 86%
04:00 +9°C° 0.4 mm 5 mps 730 mmHg 86%
05:00 +9°C° 0.4 mm 5 mps 729 mmHg 87%
06:00 +9°C° 0.4 mm 6 mps 728 mmHg 87%
07:00 +9°C° 1.9 mm 7 mps 728 mmHg 84%
08:00 +7°C° 1.9 mm 9 mps 728 mmHg 82%
09:00 +6°C° 1.9 mm 10 mps 727 mmHg 79%
10:00 +7°C° 0 mm 11 mps 727 mmHg 73%
11:00 +8°C° 0 mm 11 mps 728 mmHg 66%
12:00 +9°C° 0 mm 12 mps 728 mmHg 60%
13:00 +9°C° 0 mm 12 mps 728 mmHg 58%
14:00 +9°C° 0 mm 13 mps 728 mmHg 56%
15:00 +9°C° 0 mm 14 mps 728 mmHg 53%
16:00 +8°C° 0 mm 14 mps 729 mmHg 55%
17:00 +6°C° 0 mm 14 mps 729 mmHg 56%
18:00 +5°C° 0 mm 13 mps 730 mmHg 58%
19:00 +5°C° 0 mm 13 mps 731 mmHg 59%
20:00 +5°C° 0 mm 12 mps 731 mmHg 59%
21:00 +4°C° 0 mm 11 mps 732 mmHg 60%
22:00 +5°C° 0 mm 10 mps 733 mmHg 63%
23:00 +5°C° 0 mm 10 mps 733 mmHg 65%

Tomorrow, 23 January, Saturday

Time Temperature Precipitation Wind Pressure Humidity
00:00 +5°C° 0 mm 9 mps 733 mmHg 67%
01:00 +5°C° 0 mm 10 mps 733 mmHg 68%
02:00 +5°C° 0 mm 10 mps 733 mmHg 69%
03:00 +5°C° 0 mm 10 mps 733 mmHg 70%
04:00 +5°C° 0 mm 10 mps 733 mmHg 69%
05:00 +3°C° 0 mm 10 mps 732 mmHg 69%
06:00 +3°C° 0 mm 10 mps 732 mmHg 68%
07:00 +4°C° 0 mm 11 mps 732 mmHg 66%
08:00 +6°C° 0 mm 11 mps 732 mmHg 64%
09:00 +5°C° 0 mm 12 mps 733 mmHg 62%
10:00 +5°C° 0 mm 12 mps 732 mmHg 64%
11:00 +7°C° 0 mm 11 mps 732 mmHg 67%
12:00 +7°C° 0 mm 11 mps 732 mmHg 69%
13:00 +7°C° 0 mm 11 mps 732 mmHg 66%
14:00 +8°C° 0 mm 11 mps 732 mmHg 63%
15:00 +8°C° 0 mm 11 mps 731 mmHg 60%
16:00 +7°C° 0 mm 10 mps 731 mmHg 66%
17:00 +7°C° 0 mm 8 mps 731 mmHg 73%
18:00 +6°C° 0 mm 7 mps 731 mmHg 79%
19:00 +7°C° 0.4 mm 5 mps 730 mmHg 82%
20:00 +8°C° 0.4 mm 3 mps 730 mmHg 85%
21:00 +8°C° 0.4 mm 2 mps 729 mmHg 88%
22:00 +8°C° 0.7 mm 2 mps 729 mmHg 90%
23:00 +8°C° 0.7 mm 2 mps 728 mmHg 91%

Day after tomorrow, 24 January, Sunday

Time Temperature Precipitation Wind Pressure Humidity
00:00 +8°C° 0.7 mm 2 mps 727 mmHg 93%
01:00 +7°C° 0.1 mm 5 mps 727 mmHg 89%
02:00 +6°C° 0.1 mm 7 mps 727 mmHg 85%
03:00 +7°C° 0.1 mm 9 mps 726 mmHg 81%
04:00 +6°C° 0 mm 11 mps 727 mmHg 81%
05:00 +5°C° 0 mm 13 mps 728 mmHg 80%
06:00 +4°C° 0 mm 14 mps 728 mmHg 80%
07:00 +5°C° 0 mm 13 mps 729 mmHg 75%
08:00 +5°C° 0 mm 12 mps 730 mmHg 71%
09:00 +6°C° 0 mm 10 mps 732 mmHg 67%
10:00 +7°C° 0 mm 11 mps 732 mmHg 62%
11:00 +8°C° 0 mm 11 mps 732 mmHg 58%
12:00 +8°C° 0 mm 11 mps 733 mmHg 53%
13:00 +9°C° 0 mm 11 mps 733 mmHg 53%
14:00 +9°C° 0 mm 11 mps 733 mmHg 53%
15:00 +9°C° 0 mm 11 mps 733 mmHg 54%
16:00 +8°C° 0 mm 10 mps 733 mmHg 56%
17:00 +7°C° 0 mm 10 mps 734 mmHg 58%
18:00 +6°C° 0 mm 9 mps 734 mmHg 61%
19:00 +6°C° 0 mm 9 mps 734 mmHg 62%
20:00 +6°C° 0 mm 9 mps 735 mmHg 63%
21:00 +5°C° 0 mm 9 mps 735 mmHg 64%
22:00 +5°C° 0 mm 9 mps 735 mmHg 67%
23:00 +5°C° 0 mm 8 mps 736 mmHg 69%

25 January, Monday

Time Temperature Precipitation Wind Pressure Humidity
00:00 +4°C° 0 mm 8 mps 736 mmHg 71%
01:00 +4°C° 0 mm 8 mps 736 mmHg 74%
02:00 +4°C° 0 mm 7 mps 736 mmHg 76%
03:00 +3°C° 0 mm 7 mps 737 mmHg 79%
04:00 +3°C° 0 mm 6 mps 737 mmHg 81%
05:00 +3°C° 0 mm 6 mps 737 mmHg 82%
06:00 +2°C° 0 mm 5 mps 737 mmHg 84%
07:00 +3°C° 0 mm 5 mps 738 mmHg 81%
08:00 +4°C° 0 mm 4 mps 739 mmHg 78%
09:00 +5°C° 0 mm 4 mps 739 mmHg 75%
10:00 +6°C° 0 mm 4 mps 740 mmHg 71%
11:00 +7°C° 0 mm 4 mps 740 mmHg 66%
12:00 +9°C° 0 mm 3 mps 740 mmHg 62%
13:00 +8°C° 0 mm 4 mps 740 mmHg 61%
14:00 +8°C° 0 mm 4 mps 740 mmHg 60%
15:00 +8°C° 0 mm 4 mps 740 mmHg 59%
16:00 +9°C° 0 mm 3 mps 740 mmHg 64%
17:00 +8°C° 0 mm 3 mps 741 mmHg 69%
18:00 +7°C° 0 mm 3 mps 741 mmHg 74%
19:00 +7°C° 0 mm 2 mps 741 mmHg 77%
20:00 +6°C° 0 mm 2 mps 742 mmHg 80%
21:00 +7°C° 0 mm 1 mps 742 mmHg 84%
22:00 +6°C° 0 mm 1 mps 742 mmHg 84%
23:00 +6°C° 0 mm 1 mps 742 mmHg 84%

26 January, Tuesday

Time Temperature Precipitation Wind Pressure Humidity
00:00 +6°C° 0 mm 1 mps 742 mmHg 84%
01:00 +6°C° 0 mm 1 mps 742 mmHg 83%
02:00 +6°C° 0 mm 1 mps 742 mmHg 83%
03:00 +5°C° 0 mm 1 mps 742 mmHg 83%
04:00 +5°C° 0 mm 1 mps 742 mmHg 83%
05:00 +5°C° 0 mm 1 mps 742 mmHg 83%
06:00 +5°C° 0 mm 1 mps 742 mmHg 83%
07:00 +6°C° 0 mm 1 mps 742 mmHg 79%
08:00 +7°C° 0 mm 1 mps 743 mmHg 76%
09:00 +8°C° 0 mm 1 mps 743 mmHg 73%
10:00 +9°C° 0 mm 1 mps 743 mmHg 69%
11:00 +10°C° 0 mm 1 mps 743 mmHg 65%
12:00 +11°C° 0 mm 1 mps 742 mmHg 61%
13:00 +11°C° 0 mm 1 mps 742 mmHg 63%
14:00 +10°C° 0 mm 2 mps 742 mmHg 66%
15:00 +10°C° 0 mm 2 mps 741 mmHg 68%
16:00 +9°C° 0 mm 2 mps 742 mmHg 72%
17:00 +9°C° 0 mm 2 mps 742 mmHg 75%
18:00 +8°C° 0 mm 2 mps 742 mmHg 79%
19:00 +8°C° 0 mm 2 mps 742 mmHg 80%
20:00 +7°C° 0 mm 2 mps 742 mmHg 81%
21:00 +7°C° 0 mm 3 mps 742 mmHg 82%
22:00 +7°C° 0 mm 3 mps 742 mmHg 85%
23:00 +7°C° 0 mm 3 mps 742 mmHg 87%

27 January, Wednesday

Time Temperature Precipitation Wind Pressure Humidity
00:00 +5°C° 0 mm 3 mps 743 mmHg 90%
01:00 +5°C° 0 mm 3 mps 743 mmHg 90%
02:00 +7°C° 0 mm 3 mps 743 mmHg 91%
03:00 +7°C° 0 mm 3 mps 743 mmHg 92%
04:00 +7°C° 0 mm 3 mps 743 mmHg 92%
05:00 +7°C° 0 mm 2 mps 743 mmHg 92%
06:00 +7°C° 0 mm 2 mps 743 mmHg 92%
07:00 +7°C° 0 mm 2 mps 743 mmHg 90%
08:00 +8°C° 0 mm 2 mps 744 mmHg 87%
09:00 +9°C° 0 mm 2 mps 744 mmHg 85%
10:00 +10°C° 0 mm 2 mps 744 mmHg 80%
11:00 +12°C° 0 mm 2 mps 744 mmHg 75%
12:00 +13°C° 0 mm 2 mps 744 mmHg 71%
13:00 +14°C° 0 mm 2 mps 743 mmHg 70%
14:00 +14°C° 0 mm 2 mps 743 mmHg 69%
15:00 +14°C° 0 mm 2 mps 743 mmHg 68%
16:00 +13°C° 0 mm 2 mps 743 mmHg 73%
17:00 +12°C° 0 mm 2 mps 743 mmHg 77%
18:00 +11°C° 0 mm 1 mps 743 mmHg 81%
19:00 +11°C° 0 mm 1 mps 744 mmHg 82%
20:00 +10°C° 0 mm 1 mps 744 mmHg 83%
21:00 +10°C° 0 mm 1 mps 744 mmHg 84%
22:00 +10°C° 0 mm 1 mps 744 mmHg 85%
23:00 +10°C° 0 mm 1 mps 744 mmHg 85%
Show more